Location: Moscow Reservoir
(38.2987°N, 113.1403°W)
Time: 19:40:57
(UTC+00:00)

Daily predictions for brighter satellites

Satellite Brightness Start Highest point End
(mag) Time Altitude Azimuth Time Altitude Azimuth Time Altitude Azimuth
In-Cosmos 22 Rocket 4.3 12:03:18 10° S 12:09:07 80° E 12:14:55 10° NNE
Cosmos 2242 Rocket 4.4 12:11:37 38° N 12:11:37 38° N 12:14:24 10° N
IRS-1D 3.9 12:14:32 10° NNE 12:19:25 60° ESE 12:24:17 10° S
Cosmos 1812 4.3 12:22:44 19° SSE 12:22:44 19° SSE 12:23:42 10° SSE
SJ 16-02 2.1 12:22:31 36° SSW 12:22:31 36° SSW 12:25:15 10° S
Meteor 1-21 Rocket 4.2 12:17:32 10° S 12:23:17 88° E 12:28:56 10° N
SL-16 R/B 2.4 12:24:24 45° WNW 12:24:24 45° WNW 12:29:44 10° N
CZ-2C R/B 4.3 12:21:27 10° N 12:22:41 17° NNW 12:22:41 17° NNW
Cosmos 1110 Rocket 3.9 12:21:35 10° SSW 12:26:52 84° WNW 12:32:12 10° NNE
USA 234 4.2 12:29:05 10° E 12:35:07 41° NNE 12:40:18 14° NNW
Aureole 3 4.3 12:29:43 10° SSW 12:35:15 44° W 12:39:55 10° N
Cosmos 304 Rocket 4.1 12:39:00 40° W 12:39:17 41° WSW 12:43:43 10° S
Cosmos 1891 Rocket 4.4 12:33:12 10° N 12:39:31 86° W 12:45:39 10° S
Cosmos 371 Rocket 3.6 12:39:48 40° W 12:40:26 42° WSW 12:44:57 10° S
Cosmos 1025 Rocket 3.6 12:36:42 10° S 12:40:57 59° E 12:45:14 10° NNE
Okean 2 Rocket 3.6 12:46:09 10° N 12:50:29 60° E 12:54:49 10° SSE
Cosmos 1400 Rocket 2.4 12:47:14 13° N 12:50:30 88° W 12:54:07 10° S
SKYMED 2 3.5 12:46:50 10° SSE 12:51:10 86° ENE 12:55:32 10° N
Cosmos 1674 Rocket 3.5 12:53:02 10° SSW 12:57:23 61° W 13:01:46 10° N
Cosmos 1818 3.5 12:53:53 10° SSW 12:59:18 87° WNW 13:04:46 10° NNE
H-2A R/B 3.8 13:00:07 10° SW 13:02:14 18° SSE 13:06:25 10° SE
Cosmos 1464 Rocket 3.9 12:56:28 10° N 13:02:37 90° ENE 13:08:44 10° S
Cosmos 1452 Rocket 3.6 12:59:21 10° SW 13:04:26 52° WNW 13:09:33 10° N
Cosmos 2263 4.2 12:59:22 10° NNW 13:05:10 83° WSW 13:10:54 10° SSE
RUBIN 8/PSLV 4.5 13:03:23 10° N 13:07:47 83° WNW 13:12:08 10° SSW
Cosmos 332 Rocket 3.7 13:05:32 10° NNW 13:10:20 83° WSW 13:15:04 10° SSE
Cosmos 1943 3.3 13:05:48 10° SW 13:11:14 52° WNW 13:16:43 10° NNE
Cosmos 1850 Rocket 3.9 13:07:46 10° NNW 13:12:55 70° WSW 13:18:02 10° S
NOAA 12 4.3 13:08:57 10° N 13:14:04 49° WNW 13:19:08 10° SW
CZ-4 R/B 4.2 13:09:39 10° N 13:14:08 41° WNW 13:18:30 10° SW
Cosmos 2369 Rocket 2.4 13:08:41 10° NNW 13:14:10 50° WSW 13:19:39 10° S
Cosmos 2297 3.9 13:09:49 10° NNW 13:15:15 51° WSW 13:20:39 10° S
Cosmos 2034 Rocket 4.3 13:10:12 10° N 13:16:35 77° E 13:22:57 10° S
Meteor 1-11 4.4 13:12:14 10° SSW 13:17:55 52° WNW 13:23:37 10° N
Cosmos 1603 3.8 13:12:37 10° SSW 13:18:22 86° ESE 13:24:08 10° NNE
Cosmos 1455 Rocket 4.1 13:16:01 10° N 13:20:14 47° E 13:24:27 10° SSE
Cosmos 2221 Rocket 3.9 13:22:56 10° SSW 13:27:15 45° W 13:31:37 10° N
Cosmos 2151 Rocket 4.3 13:29:48 10° NNW 13:33:45 32° W 13:37:40 10° SSW
Lacrosse 5 rocket 1.0 13:34:20 10° NW 13:37:39 65° NE 13:40:54 10° SE
CBERS-1 4.0 13:33:59 10° NNE 13:39:06 81° WNW 13:44:11 10° SSW
Lacrosse 4 Rocket 1.9 13:35:59 10° NNW 13:39:50 54° ENE 13:43:38 10° SE
Okean 1 Rocket 3.4 13:36:54 10° NNW 13:40:58 41° W 13:44:59 10° SSW
Hubble Space Telescope 3.1 13:40:46 10° SSW 13:43:11 16° S 13:45:37 10° SE
USA 267 4.2 13:38:02 10° NNE 13:43:28 29° NNW 13:48:52 10° W
Helios 1A Rocket 3.8 13:41:26 10° SSW 13:44:02 21° W 13:46:39 10° NW
Iridium 45 4.2 13:40:57 10° N 13:44:08 77° W 13:47:24 10° S
Sich 1 Rocket 4.2 13:41:49 10° NNW 13:45:58 37° W 13:50:03 10° SSW
NOSS 2-2 (E) 4.3 13:42:47 10° NNW 13:46:59 63° ENE 13:52:51 10° SE
CZ-2D R/B 3.8 13:44:10 10° NNE 13:47:16 50° E 13:50:20 10° S
NOSS 3-2 (A) 4.3 13:39:35 10° NNW 13:47:22 89° WSW 13:56:32 10° SSE
Cosmos 1484 Rocket 3.2 13:44:37 10° N 13:47:49 33° WNW 13:50:58 10° SW
COSMO-SKYMED 1 3.4 13:46:22 10° SSW 13:49:53 27° W 13:53:25 10° NW
SMAP 3.4 13:45:19 10° NNE 13:49:59 75° ESE 13:54:38 10° S
